Location: Nakusp
(50.2330°N, 117.8000°W)
Time: 16:08:33
(UTC-07:00)

Cosmos 1939 Rocket - Visible Passes

Search period start: 23 July 2016 00:00
Search period end: 02 August 2016 00:00
Orbit: 533 x 588 km, 97.6° (Epoch: 23 July)

Date Brightness Start Highest point End Pass type
(mag) Time Alt. Az. Time Alt. Az. Time Alt. Az.
23 Jul 4.0 21:36:17 10° S 21:39:57 40° W 21:43:41 10° NNW visible
24 Jul 4.0 21:35:17 10° S 21:38:58 41° W 21:42:44 10° NNW visible
25 Jul 4.0 21:34:17 10° S 21:37:59 42° W 21:41:46 10° NNW visible
26 Jul 3.9 21:33:17 10° S 21:37:00 43° W 21:40:48 10° NNW visible
27 Jul 3.9 21:32:17 10° S 21:36:01 44° W 21:39:50 10° NNW visible
28 Jul 3.8 21:31:18 10° S 21:35:02 45° W 21:38:53 10° NNW visible
29 Jul 3.8 21:30:18 10° S 21:34:04 47° W 21:37:55 10° NNW visible
30 Jul 3.8 21:29:18 10° S 21:33:05 48° W 21:36:58 10° NNW visible
31 Jul 3.7 21:28:18 10° S 21:32:06 49° W 21:36:00 10° NNW visible
01 Aug 3.7 21:27:18 10° S 21:31:08 50° W 21:35:03 10° NNW visible
